User: anonymous   Login
Location: Unspecified
(0.0000°N, 0.0000°E)
Time: 12:46:30
(UTC+00:00)
Language:

CHIPSAT - Orbit

View from above orbital plane
View from above orbital plane
View from above satellite
View from above satellite

Ground track
Ground track

The orbit data is extracted from the following two-line orbital elements,

1 27643U 03002B   18201.16474092  .00000203  00000-0  14225-4 0  9995
2 27643  94.0451 239.0722 0017854  29.3545 330.8689 15.07966847849422
Epoch (UTC): 20 July 2018 03:57:13
Eccentricity: 0.0017854
inclination: 94.0451°
perigee height: 530 km
apogee height: 555 km
right ascension of ascending node: 239.0722°
argument of perigee: 29.3545°
revolutions per day: 15.07966847
mean anomaly at epoch: 330.8689°
orbit number at epoch: 84942

The dashed part of the orbit path shows where the satellite is in the earth's shadow,  

DLR